ONEWEB-0067, 45425

Orbit data source: Space-Track

ONEWEB-0067, 45425 is a payload satellite owned by One Web (UK) in LEO that was launched on Sat, 21 Mar 2020 UTC via a SOYUZ-2-1B launch vehicle from the Tyuratam Missile And Space Complex (TTMTR). Payload-class satellites include a variety of spacecraft equipped with specific instruments for various scientific and technological missions. These include communications satellites like Starlink; space stations such as the ISS; scientific satellites like the Hubble; Earth observation satellites from companies like Planet Labs, Umbra, and HawkEye 360; GPS; miniature CubeSats for education and research; and military/defense satellites.

Loading next visibility...
Identifier
45425, 2020-020B
Orbit
LEO
Last TLE update
19 hours ago
Origin
Manufacturer
One Web
Mission
Operational Commercial Communications
Bus & Motor
ARROW, Unknown motor
Mass
148 kg wet, ~140 kg dry
Launch date (UTC)
2020-03-21 (5 years ago)
Launch vehicle
SOYUZ-2-1B
Launch site
Tyuratam Missile And Space Complex (TTMTR)
Object type
Payload
Rocket body
Debris
Shape & HBR
Trap Box + 2 Pan, 5 m
Radar Cross Section
2.957 m², Large (>1 m²)

Expand to show TLE details & history

TLE from 19 hours ago
0 ONEWEB-0067
1 45425U 20020B   25128.42976571 -.00000053  00000-0 -18547-3 0  9991
2 45425  87.8797 101.6603 0002003  78.4974 281.6379 13.11419208249684
Epoch: 2025-05-08T10:18Z
Definitive object data (Epoch: 2025-05-08T10:18:51.757Z)
Latitude
0.00001°
Longitude
80.44426°
Altitude
1,220.256 km
Speed
7.244 km/s
True Right ascension
06h 46m 38s
True Declination
0° 00' 00"
Sunlit
Object was in daylight at TLE epoch
Visualization TLE readout
Latitude
23.15482°
Longitude
-100.61739°
Altitude
1,220.227 km
Speed
7.246 km/s
Apparent Right ascension
21h 18m 25s
Apparent Declination
-8° 14' 22"
Sunlit
Object is in daylight
Visualization observer readout
Local Sidereal Time
13:34:01
Azimuth
79.205° E
Elevation
-25.208°
Doppler factor
1
Orbital elements
Apogee altitude
1,216.313 km
Perigee altitude
1,213.271 km
Semi-major axis
7,592.929 km
Eccentricity
0.0002003
Inclination
87.8797°
RAAN
101.6603°
Arg. of periapsis
78.4974°
True anomaly
281.61542°
Mean anomaly
281.6379°
Eccentric anomaly
281.62666°
Mean motion
3.28042 °/min
BSTAR
-0.00018547
Orbital period
109.74 mins
Loading maneuver chart data...
Loading SW <> Apogee altitude chart data...
Loading historical data...
Loading historical data...
Loading historical data...
Loading historical data...
Loading historical data...
Loading historical data...
Loading historical data...

ONEWEB-0067 Visibility forecast

Observer location: undefined°, undefined°

Span
Click to sort rows by Start time (UTC) header in descending order
Start Az.
Max El. time (UTC)
Max El. Az.
Max El.
End time (UTC)
End Az.
10 mins2025-05-09 08:54:21.176Z30.262° NE2025-05-09 08:59:21.176Z75.977° E20.309°2025-05-09 09:04:21.176Z121.292° SE
12 mins2025-05-09 10:44:21.176Z350.819° N2025-05-09 10:49:21.176Z293.46° NW42.206°2025-05-09 10:56:21.176Z194.695° SSW
9 mins2025-05-09 21:15:21.176Z114.556° SE2025-05-09 21:19:21.176Z72.968° E22.415°2025-05-09 21:24:21.176Z27.715° NE
13 mins2025-05-09 23:02:21.176Z197.296° SSW2025-05-09 23:08:21.176Z271.925° WNW40.765°2025-05-09 23:15:21.176Z352.725° N
|